Regional Weather Roundup
Issued by NWS

Home | Current Version | Previous Version | Text Only | Print | Product List | Glossary Off
Versions: 1 2 3 4 5 6 7 8 9 10 11 12 13 14 15 16 17 18 19 20 21 22 23 24 25 26 27 28

000
ASUS45 KTFX 221210
RWRMT
MONTANA REGIONAL WEATHER ROUNDUP
NATIONAL WEATHER SERVICE GREAT FALLS MT
600 AM MDT SUN APR 22 2018

NOTE: "FAIR" INDICATES FEW OR NO CLOUDS BELOW 12000 FEET WITH NO
SIGNIFICANT WEATHER AND/OR OBSTRUCTIONS TO VISIBILITY.

MTZ001>007-043-221300-
WEST OF THE DIVIDE

CITY           SKY/WX    TMP DP  RH WIND       PRES   REMARKS
KALISPELL      FAIR      34  24  67 CALM      30.18R
MISSOULA       FAIR      31  22  69 N3        30.22S
BUTTE          FAIR      28  22  78 CALM      30.18S
MULLAN PASS    FAIR      28  16  60 SW9       30.15S WCI  19
ANACONDA         N/A     28  21  74 CALM      30.19S
DEER LODGE       N/A     28  21  74 W3        30.22R
HAMILTON         N/A     32  25  74 MISG      30.22R
RONAN            N/A     34  23  64 SE9       30.21S WCI  26
$$

MTZ008-052>055-221300-
SOUTHWEST MONTANA

CITY           SKY/WX    TMP DP  RH WIND       PRES   REMARKS
BOZEMAN        FAIR      34  26  72 S7        30.17F WCI  28
DILLON         FAIR      31  25  78 E5        30.15S
ENNIS          CLEAR     28  25  86 NE5       30.20S
W YELLOWSTONE  FAIR      25  25 100 CALM      30.18R
THREE FORKS      N/A     29  25  85 CALM      30.14S
$$

MTZ009-010-012-014-046-048-049-054-221300-
EAST SLOPES AND CENTRAL MONTANA

CITY           SKY/WX    TMP DP  RH WIND       PRES   REMARKS
CUT BANK       FAIR      36  21  54 N6        30.12R WCI  31
GREAT FALLS    FAIR      35  23  61 SW6       30.14S WCI  30
HELENA         FAIR      41  23  48 W7        30.17S
CHOTEAU          N/A     37  18  44 SW3       30.15S
POWER          FAIR      32  21  64 SW7       30.13R WCI  26
ULM            MOCLDY    37  24  57 W5        30.15S
WHITE SULPHUR    N/A     28  23  80 S7        30.15F WCI  21
$$

MTZ011-013-016-021-045-047-050-051-221300-
NORTH CENTRAL MONTANA

CITY           SKY/WX    TMP DP  RH WIND       PRES   REMARKS
HAVRE          FAIR      32  26  78 SW6       30.13S WCI  26
LEWISTOWN      CLOUDY    36  24  62 SE6       30.15F WCI  31
N BAR RANCH    CLOUDY    37  21  52 W5        30.19S
CHINOOK          N/A     36  30  80 N3        30.13S
GRASS RANGE    CLOUDY    40  24  52 SW10      30.13F
$$

MTZ017>020-022>027-061-062-221300-
NORTHEAST MONTANA

CITY           SKY/WX    TMP DP  RH WIND       PRES   REMARKS
GLASGOW        FAIR      38  28  67 W8        30.13R
GLENDIVE       FAIR      38  28  67 W10       30.14R WCI  31
JORDAN           N/A     40  32  73 CALM      30.15R
MALTA          CLEAR     37  32  81 CALM      30.13R
SIDNEY         MOCLDY    46  28  49 NW13      30.12R
WOLF POINT     MOCLDY    41  29  62 SW7       30.13R
PLENTYWOOD       N/A     39  27  60 CALM      30.10R
POPLAR           N/A     41  27  56 CALM      30.13R
$$

MTZ028>42-056>058-221300-
SOUTHCENTRAL AND SOUTHEAST MONTANA

CITY           SKY/WX    TMP DP  RH WIND       PRES   REMARKS
BAKER          FAIR      33  33 100 CALM      30.15R
BILLINGS       FAIR      43  28  55 E6        30.17S
MILES CITY     FAIR      39  31  72 NW7       30.16R
BIG TIMBER     CLOUDY    39  25  56 NE7       30.19S
FORSYTH          N/A     45  28  53 SW3       30.18R
LAUREL           N/A     41  28  60 NE10      30.18S
$$

REGIONAL REPORTS...DAKOTAS

CITY           SKY/WX    TMP DP  RH WIND       PRES   REMARKS
WILLISTON      MOCLDY    39  28  64 CALM      30.11R
MINOT          FAIR      41  35  79 SW15      30.08R
DICKINSON      FAIR      31  30  96 S8        30.09S WCI  23
BEACH          FAIR      30  30 100 W5        30.17R
CROSBY         FAIR      39  28  65 W10       30.08R
TIOGA          FAIR      36  36 100 SW6       30.10R WCI  31
BISMARCK       FAIR      32  31  96 NW3       30.17F
GRAND FORKS    MOCLDY    34  34 100 S8        30.22R WCI  27
FARGO          FAIR      37  33  85 S10       30.26F WCI  30
BUFFALO SD       N/A     34  32  92 W7        30.06S WCI  28
RAPID CITY     FAIR      31  29  92 SE3       30.12R
$$

REGIONAL REPORTS...WYOMING/IDAHO/WASHINGTON

CITY           SKY/WX    TMP DP  RH WIND       PRES   REMARKS
GILLETTE       FAIR      30  29  96 CALM      30.14R
SHERIDAN       FAIR      39  27  62 CALM      30.20R
BUFFALO WY     FAIR      41  28  60 N12       30.20R
CODY           FAIR      39  25  57 CALM      30.16R
YELLOWSTONE LA   N/A     23  20  88 CALM      30.24S
IDAHO FALLS    FAIR      40  31  70 SW8       30.15S
SALMON         FAIR      34  30  85 S3        30.18R
BOISE          MOCLDY    41  25  53 W5        30.14S
SPOKANE        FAIR      33  26  75 S7        30.23S WCI  27
$$

REGIONAL REPORTS...ALBERTA

CITY           SKY/WX    TMP DP  RH WIND       PRES   REMARKS
CALGARY        PTCLDY    37  16  41 W16G23    30.06R WCI  28
CARDSTON         N/A     37  18  44 SW6         N/A
EDMONTON       CLOUDY    39  18  41 W20G28    29.95S WCI  30
FORT MCMURRAY  CLOUDY    39  36  87 NW12G17   29.73R WCI  32
HIGH LEVEL     CLOUDY    34  32  93 NW5       29.96R
LETHBRIDGE     PTCLDY    32  23  69 W12       30.10S WCI  23
LLOYDMINSTER   CLEAR     36  28  75 W22G29    29.84R WCI  24
MEDICINE HAT   CLEAR     34  28  80 SW8       30.09R WCI  27
MILK RIVER       N/A     32  25  74 W7          N/A  WCI  26
ONEFOUR          N/A     34  27  75 N10         N/A  WCI  26
PEACE RIVER    MOCLDY    37  28  70 NW13G20   29.99R WCI  29
PINCHER CREEK  CLEAR     30  21  69 W9        30.12R WCI  22
WATERTON GATE    N/A     30  19  64 SW3         N/A
$$

REGIONAL REPORTS...SASKATCHEWAN

CITY           SKY/WX    TMP DP  RH WIND       PRES   REMARKS
CORONACH         N/A     34  27  75 NW3         N/A
CYPRESS HILLS    N/A     36  18  48 NW7         N/A  WCI  30
ESTEVAN        MOCLDY    39  28  65 W10       30.06R
MOOSE JAW        N/A     39  30  70 W14         N/A  WCI  31
PRINCE ALBERT  MOCLDY    41  36  81 W18G32    29.70R
REGINA         MOCLDY    36  32  87 SW12      30.00R WCI  27
ROCKGLEN         N/A     36  27  69 W9          N/A  WCI  29
SASKATOON      PTCLDY    39  32  75 W16       29.86R WCI  30
SWIFT CURRENT  CLEAR     36  27  69 W17       30.03R WCI  25
VAL MARIE        N/A     36  27  69 W3          N/A
$$




USA.gov is the U.S. government's official web portal to all federal, state and local government web resources and services.